Date String (YYYY-MM-DD hh:mm:ss) UTC,Instrument flags,Ambient pressure (hPa),Sample flow (lpm),Bypass flow (lpm),Sample temperature (°C),Ambient temperature (°C),ASC tube jacket temperature (°C),LED temperature (°C),Box temperature (°C),Sample RH (%),Span deviation,Mass concentration (μg/m³),Mass concentration (μg/m³),Mass concentration (μg/m³)
DateTimeUTC,F1_M11,P_M11,Q1_M11,Q2_M11,T1_M11,T2_M11,T3_M11,T4_M11,T5_M11,U1_M11,ZSPAN_M11,X0_M11,X2_M11,X1_M11
2022-08-05 09:00:00,,0826.2,5.01,0.00,29.7,27.6,00.0,38.4,31.4,23.8,0002.1,0019.39,0009.45,0007.69
2022-08-05 09:01:00,,0826.2,4.99,0.00,29.6,27.5,00.0,38.4,31.4,23.9,0002.7,0019.80,0009.44,0007.70
2022-08-05 09:02:00,,0826.2,5.00,0.00,29.6,27.5,00.0,38.3,31.3,24.0,0002.8,0020.53,0009.45,0007.71
2022-08-05 09:03:00,,0826.2,4.99,0.00,29.5,27.6,00.0,38.3,31.4,24.0,0002.7,0020.89,0009.49,0007.73
2022-08-05 09:04:00,,0826.2,5.02,0.00,29.5,27.8,00.0,38.3,31.4,23.9,0002.7,0020.94,0009.46,0007.74
2022-08-05 09:05:00,,0826.2,5.00,0.00,29.5,27.9,00.0,38.3,31.4,23.9,0002.5,0021.72,0009.48,0007.77
2022-08-05 09:06:00,,0826.2,4.99,0.00,29.5,28.0,00.0,38.3,31.4,23.9,0001.9,0020.68,0009.50,0007.80
2022-08-05 09:07:00,,0826.2,5.00,0.00,29.6,28.2,00.0,38.3,31.5,23.8,0002.2,0020.84,0009.58,0007.83
2022-08-05 09:08:00,,0826.2,5.00,0.00,29.6,28.3,00.0,38.4,31.5,23.8,0002.1,0020.70,0009.59,0007.85
2022-08-05 09:09:00,,0826.2,5.01,0.00,29.6,28.4,00.0,38.4,31.5,23.8,0001.6,0020.75,0009.60,0007.86
2022-08-05 09:10:00,,0826.2,5.00,0.00,29.6,28.5,00.0,38.4,31.6,23.6,0001.5,0021.09,0009.66,0007.87
2022-08-05 09:11:00,,0826.2,4.99,0.00,29.6,28.5,00.0,38.4,31.6,23.7,0001.3,0020.58,0009.66,0007.87
2022-08-05 09:12:00,,0826.2,5.00,0.00,29.7,28.6,00.0,38.4,31.6,23.5,0000.8,0020.34,0009.71,0007.88
2022-08-05 09:13:00,,0826.2,5.00,0.00,29.7,28.7,00.0,38.4,31.7,23.5,0000.8,0019.74,0009.70,0007.88
2022-08-05 09:14:00,,0826.2,4.99,0.00,29.7,28.5,00.0,38.4,31.6,23.4,0001.4,0019.31,0009.65,0007.85
2022-08-05 09:15:00,,0826.2,5.02,0.00,29.7,27.8,00.0,38.4,31.5,23.3,0001.6,0019.00,0009.64,0007.84
2022-08-05 09:16:00,,0826.2,4.99,0.00,29.6,27.5,00.0,38.4,31.4,23.4,0001.7,0017.71,0009.58,0007.84
2022-08-05 09:17:00,,0826.1,5.00,0.00,29.6,27.5,00.0,38.4,31.3,23.5,0002.2,0017.64,0009.55,0007.84
2022-08-05 09:18:00,,0826.2,5.00,0.00,29.5,27.5,00.0,38.3,31.3,23.5,0002.4,0017.96,0009.42,0007.81
2022-08-05 09:19:00,,0826.2,5.00,0.00,29.5,27.7,00.0,38.3,31.3,23.4,0002.9,0018.94,0009.37,0007.79
2022-08-05 09:20:00,,0826.2,5.00,0.00,29.5,27.8,00.0,38.3,31.4,23.4,0003.2,0019.36,0009.31,0007.77
2022-08-05 09:21:00,,0826.2,5.01,0.00,29.5,27.9,00.0,38.3,31.4,23.3,0003.2,0018.96,0009.24,0007.74
2022-08-05 09:22:00,,0826.2,5.00,0.00,29.5,28.1,00.0,38.3,31.4,23.3,0003.1,0018.68,0009.26,0007.68
2022-08-05 09:23:00,,0826.1,5.00,0.00,29.5,28.2,00.0,38.3,31.5,23.2,0003.1,0018.70,0009.28,0007.65
2022-08-05 09:24:00,,0826.2,4.99,0.00,29.6,28.3,00.0,38.4,31.5,23.2,0003.1,0017.85,0009.19,0007.59
2022-08-05 09:25:00,,0826.2,5.00,0.00,29.6,28.4,00.0,38.4,31.5,23.2,0002.6,0017.52,0009.06,0007.52
2022-08-05 09:26:00,,0826.2,5.00,0.00,29.6,28.5,00.0,38.4,31.6,23.1,0002.4,0017.42,0008.95,0007.45
2022-08-05 09:27:00,,0826.2,4.99,0.00,29.6,28.6,00.0,38.4,31.6,23.1,0002.3,0018.30,0008.83,0007.36
2022-08-05 09:28:00,,0826.1,5.00,0.00,29.7,28.6,00.0,38.4,31.7,23.1,0002.2,0017.90,0008.76,0007.29
2022-08-05 09:29:00,,0826.1,5.00,0.00,29.7,28.7,00.0,38.4,31.7,23.1,0001.5,0017.25,0008.75,0007.23
2022-08-05 09:30:00,,0826.1,5.00,0.00,29.7,28.7,00.0,38.5,31.7,23.1,0000.8,0015.98,0008.68,0007.16
2022-08-05 09:31:00,,0826.2,5.00,0.00,29.7,28.1,00.0,38.4,31.6,23.1,0000.8,0015.23,0008.64,0007.13
2022-08-05 09:32:00,,0826.2,5.01,0.00,29.7,27.6,00.0,38.4,31.4,23.2,0000.9,0014.99,0008.56,0007.11
2022-08-05 09:33:00,,0826.2,5.00,0.00,29.6,27.5,00.0,38.4,31.4,23.3,0000.9,0014.81,0008.53,0007.12
2022-08-05 09:34:00,,0826.2,5.01,0.00,29.6,27.5,00.0,38.4,31.3,23.4,0001.2,0014.63,0008.55,0007.13
2022-08-05 09:35:00,,0826.2,4.99,0.00,29.5,27.6,00.0,38.4,31.3,23.5,0001.1,0014.83,0008.61,0007.16
2022-08-05 09:36:00,,0826.2,5.01,0.00,29.5,27.8,00.0,38.4,31.4,23.5,0001.1,0015.55,0008.67,0007.20
2022-08-05 09:37:00,,0826.2,5.00,0.00,29.5,27.9,00.0,38.4,31.4,23.5,0000.7,0016.38,0008.75,0007.25
2022-08-05 09:38:00,,0826.2,5.01,0.00,29.5,28.0,00.0,38.4,31.4,23.4,0001.1,0015.67,0008.88,0007.29
2022-08-05 09:39:00,,0826.2,5.00,0.00,29.5,28.2,00.0,38.4,31.5,23.4,0001.4,0016.40,0008.89,0007.32
2022-08-05 09:40:00,,0826.2,5.00,0.00,29.6,28.3,00.0,38.4,31.5,23.4,0002.3,0016.97,0008.89,0007.34
2022-08-05 09:41:00,,0826.1,5.00,0.00,29.6,28.4,00.0,38.4,31.5,23.3,0002.6,0017.09,0008.93,0007.37
2022-08-05 09:42:00,,0826.1,5.00,0.00,29.6,28.5,00.0,38.4,31.6,23.3,0002.6,0017.99,0008.94,0007.37
2022-08-05 09:43:00,,0826.1,4.99,0.00,29.6,28.5,00.0,38.4,31.6,23.3,0002.7,0018.40,0009.01,0007.35
2022-08-05 09:44:00,,0826.1,5.00,0.00,29.7,28.6,00.0,38.4,31.6,23.3,0002.8,0018.28,0008.91,0007.28
2022-08-05 09:45:00,,0826.1,5.01,0.00,29.7,28.7,00.0,38.4,31.7,23.3,0002.7,0018.28,0008.81,0007.20
2022-08-05 09:46:00,,0826.1,5.00,0.00,29.7,28.7,00.0,38.5,31.7,23.3,0002.8,0018.75,0008.73,0007.12
2022-08-05 09:47:00,,0826.1,5.00,0.00,29.7,28.1,00.0,38.4,31.5,23.4,0002.8,0018.01,0008.68,0007.05
2022-08-05 09:48:00,,0826.1,5.01,0.00,29.7,27.6,00.0,38.4,31.4,23.4,0003.2,0017.04,0008.59,0006.97
2022-08-05 09:49:00,,0826.1,4.99,0.00,29.6,27.5,00.0,38.4,31.4,23.6,0003.0,0017.05,0008.51,0006.93
2022-08-05 09:50:00,,0826.1,5.01,0.00,29.6,27.5,00.0,38.4,31.3,23.7,0003.0,0016.04,0008.41,0006.87
2022-08-05 09:51:00,,0826.1,4.99,0.00,29.5,27.7,00.0,38.4,31.3,23.7,0002.6,0015.26,0008.34,0006.83
2022-08-05 09:52:00,,0826.1,5.00,0.00,29.5,27.8,00.0,38.4,31.4,23.8,0002.5,0015.25,0008.31,0006.78
2022-08-05 09:53:00,,0826.2,4.99,0.00,29.5,27.9,00.0,38.4,31.4,23.7,0002.5,0014.25,0008.28,0006.77
2022-08-05 09:54:00,,0826.2,5.00,0.00,29.5,28.1,00.0,38.4,31.4,23.6,0002.4,0014.12,0008.25,0006.76
2022-08-05 09:55:00,,0826.2,5.01,0.00,29.6,28.2,00.0,38.4,31.5,23.5,0002.2,0014.24,0008.29,0006.78
2022-08-05 09:56:00,,0826.1,5.00,0.00,29.6,28.3,00.0,38.4,31.5,23.5,0002.2,0013.98,0008.25,0006.81
2022-08-05 09:57:00,,0826.1,5.00,0.00,29.6,28.4,00.0,38.4,31.5,23.5,0001.9,0013.33,0008.25,0006.85
2022-08-05 09:58:00,,0826.0,5.00,0.00,29.6,28.5,00.0,38.4,31.6,23.5,0002.0,0013.46,0008.26,0006.88
2022-08-05 09:59:00,,0826.1,4.99,0.00,29.7,28.6,00.0,38.4,31.6,23.4,0002.0,0013.92,0008.28,0006.92
